TimeEST,TemperatureF,Dew PointF,Humidity,Sea Level PressureIn,VisibilityMPH,Wind Direction,Wind SpeedMPH,Gust SpeedMPH,PrecipitationIn,Events,Conditions,WindDirDegrees,DateUTC
12:52 AM,23.0,19.0,85,30.62,9.0,Calm,Calm,-,N/A,,Clear,0,2012-11-19 05:52:00
1:52 AM,21.9,18.0,85,30.61,9.0,Calm,Calm,-,N/A,,Clear,0,2012-11-19 06:52:00
2:52 AM,21.0,17.1,85,30.60,9.0,Calm,Calm,-,N/A,,Clear,0,2012-11-19 07:52:00
3:52 AM,19.9,17.1,89,30.60,8.0,Calm,Calm,-,N/A,,Clear,0,2012-11-19 08:52:00
4:52 AM,21.0,16.0,81,30.60,9.0,Calm,Calm,-,N/A,,Clear,0,2012-11-19 09:52:00
5:52 AM,19.0,15.1,85,30.59,10.0,Calm,Calm,-,N/A,,Clear,0,2012-11-19 10:52:00
6:52 AM,19.0,14.0,81,30.58,10.0,Calm,Calm,-,N/A,,Clear,0,2012-11-19 11:52:00
7:52 AM,21.9,18.0,85,30.57,8.0,Calm,Calm,-,N/A,,Clear,0,2012-11-19 12:52:00
8:52 AM,28.0,23.0,81,30.55,6.0,SE,3.5,-,N/A,,Haze,140,2012-11-19 13:52:00
9:52 AM,34.0,25.0,70,30.53,10.0,Calm,Calm,-,N/A,,Clear,0,2012-11-19 14:52:00
10:52 AM,39.9,24.1,53,30.50,10.0,Calm,Calm,-,N/A,,Clear,0,2012-11-19 15:52:00
11:52 AM,45.0,15.1,30,30.45,10.0,ESE,4.6,-,N/A,,Clear,110,2012-11-19 16:52:00
12:52 PM,48.9,10.0,21,30.42,10.0,Calm,Calm,-,N/A,,Clear,0,2012-11-19 17:52:00
1:52 PM,48.9,8.1,19,30.38,10.0,Calm,Calm,-,N/A,,Clear,0,2012-11-19 18:52:00
2:52 PM,50.0,12.0,22,30.37,10.0,Calm,Calm,-,N/A,,Clear,0,2012-11-19 19:52:00
3:52 PM,43.0,19.0,38,30.37,10.0,WSW,3.5,-,N/A,,Clear,240,2012-11-19 20:52:00
4:52 PM,34.0,21.0,59,30.37,5.0,Calm,Calm,-,N/A,,Haze,0,2012-11-19 21:52:00
5:52 PM,30.0,21.9,72,30.38,10.0,Calm,Calm,-,N/A,,Clear,0,2012-11-19 22:52:00
6:52 PM,28.0,21.9,78,30.37,10.0,Calm,Calm,-,N/A,,Clear,0,2012-11-19 23:52:00
7:52 PM,27.0,21.0,78,30.37,10.0,Calm,Calm,-,N/A,,Clear,0,2012-11-20 00:52:00
8:52 PM,25.0,19.9,81,30.35,10.0,Calm,Calm,-,N/A,,Clear,0,2012-11-20 01:52:00
9:52 PM,24.1,19.0,81,30.33,10.0,Calm,Calm,-,N/A,,Clear,0,2012-11-20 02:52:00
10:52 PM,23.0,18.0,81,30.31,10.0,Calm,Calm,-,N/A,,Clear,0,2012-11-20 03:52:00
11:52 PM,23.0,18.0,81,30.30,10.0,Calm,Calm,-,N/A,,Clear,0,2012-11-20 04:52:00